Wind_Speed
4 4 5 5 5 5 4 5 4 5 5 5 4 3 3 3 3 3 2 2 2 2 2 2 2 3 3 4 4 4 3 3 4 4 4 4 4 4 4 6 6 7 7 7 6 6 7 7 7
5 5 5 4 5 5 5 5 5 5 5 5 4 3 3 3 3 3 2 2 2 2 3 2 2 3 4 4 4 4 4 4 4 4 4 4 4 4 4 4 6 7 7 6 6 7 7 8 8
5 5 5 4 5 4 5 6 6 6 5 4 4 3 3 3 2 3 3 3 2 3 3 2 3 3 4 4 4 4 4 4 4 5 5 5 4 5 5 5 5 7 7 7 6 6 6 7 7
6 5 4 4 5 5 5 6 6 6 6 5 4 4 4 3 3 3 3 3 3 3 3 3 3 4 4 5 5 4 4 4 4 4 5 5 4 5 5 5 5 5 5 5 5 6 6 7 8
6 5 4 4 4 5 5 6 6 6 6 6 5 5 5 4 3 3 3 3 3 3 2 3 3 4 4 4 4 4 4 5 5 4 4 4 4 4 5 5 5 5 5 5 5 5 6 7 8
6 5 5 5 6 7 6 5 6 6 6 6 6 6 5 5 3 3 3 2 2 3 3 3 4 4 4 4 4 4 4 4 5 5 5 4 4 4 4 4 5 5 6 6 5 6 7 7 8
5 5 5 6 6 7 7 6 6 6 6 6 6 6 5 5 4 3 2 2 2 3 3 3 3 4 4 4 4 4 5 5 5 5 5 5 4 4 5 5 5 6 6 6 6 6 7 7 8
5 5 6 6 6 7 7 7 6 6 6 6 6 6 5 4 4 4 3 3 2 3 3 3 3 3 3 3 4 4 4 5 5 5 5 5 5 5 5 5 6 6 7 7 7 6 8 8 8
5 5 6 6 6 6 7 6 6 6 6 6 5 5 5 4 4 4 3 3 2 2 3 3 3 3 3 3 3 3 4 4 4 4 5 5 5 5 6 6 6 6 6 6 6 6 7 8 8
5 5 5 6 6 6 6 6 6 6 6 6 6 5 5 5 5 5 4 3 3 3 3 2 2 2 3 3 3 4 4 4 4 4 4 5 5 5 6 6 6 6 6 6 6 7 8 8 8
4 5 6 6 6 7 7 6 6 6 6 6 5 5 4 5 4 4 4 4 3 3 3 2 2 2 2 3 3 4 4 4 4 4 4 5 5 5 5 5 6 6 6 6 6 7 7 8 8
4 5 5 6 6 7 7 7 6 7 6 6 5 5 5 5 4 5 4 4 3 3 3 2 2 2 2 2 3 3 3 4 4 4 4 5 5 5 5 5 5 6 6 6 7 7 7 8 8
4 4 5 5 6 6 7 7 7 6 6 6 6 5 4 5 5 5 5 5 3 2 2 2 2 2 2 2 3 3 3 3 4 4 5 4 5 5 5 6 6 6 6 6 6 6 7 7 7
3 4 4 5 6 6 6 6 6 6 6 6 6 6 5 4 5 5 5 4 4 3 3 3 3 2 2 2 2 3 3 3 4 4 4 4 4 4 5 5 6 5 5 5 5 6 6 6 7
3 3 4 5 5 5 5 6 6 7 7 7 6 6 6 5 5 5 4 4 4 4 4 4 4 3 2 2 3 3 3 3 3 3 4 4 4 4 5 5 5 6 6 5 5 5 5 6 7
3 4 4 4 4 5 5 6 6 7 7 7 7 7 6 6 6 6 4 4 4 4 4 4 5 4 3 3 3 3 2 2 2 2 3 4 4 4 4 5 5 5 5 5 5 5 5 5 5
3 4 4 4 4 4 5 6 6 7 7 7 8 7 7 7 6 6 5 4 4 4 5 5 5 4 4 4 3 3 2 2 2 2 3 3 3 4 4 4 4 5 5 5 5 5 5 4 5
4 4 4 3 4 4 5 6 6 6 7 7 7 7 6 6 6 6 5 5 4 4 5 5 5 5 5 4 3 3 3 3 3 4 4 4 4 4 4 4 4 5 4 4 5 5 5 5 5
4 4 5 4 4 5 5 6 6 6 7 7 7 6 6 6 5 5 5 5 5 4 5 5 5 5 5 4 3 3 3 4 4 4 4 5 4 4 4 4 4 4 4 4 4 4 4 4 5
5 5 5 5 4 5 5 5 6 7 7 7 7 7 6 6 6 6 5 5 5 5 5 5 6 5 5 4 4 4 4 4 4 4 4 5 5 4 4 3 3 3 4 4 4 5 4 5 5
4 5 5 5 4 5 5 5 5 6 6 6 7 7 7 6 5 5 5 6 5 5 5 6 5 5 5 4 4 4 4 4 5 5 4 4 4 4 4 3 3 3 4 4 4 5 5 4 5
5 5 5 6 5 5 5 5 5 6 5 6 6 7 7 6 5 5 6 6 6 6 6 6 6 6 5 4 5 5 4 4 5 5 5 5 4 4 4 4 4 4 4 4 4 5 5 4 4
5 6 6 6 6 5 6 5 6 6 6 6 6 7 7 7 6 6 7 7 7 7 7 6 6 6 5 5 6 5 5 5 5 5 5 5 4 4 4 4 4 4 4 4 4 5 5 5 5
6 6 7 7 7 7 6 6 6 7 7 7 7 7 8 7 7 7 7 7 7 7 7 7 7 6 6 6 6 6 6 6 6 5 5 5 5 5 5 5 4 5 5 4 4 5 5 6 5
6 6 8 8 8 8 7 7 6 7 8 8 7 7 7 8 7 7 7 7 7 7 7 7 7 7 7 7 7 7 7 7 6 6 5 5 5 5 5 6 6 6 6 5 5 5 5 6 6
7 7 8 8 8 8 8 7 7 7 7 8 7 7 7 7 7 7 7 7 7 8 7 7 7 7 7 8 8 7 8 8 7 6 6 6 6 6 6 7 6 6 6 6 6 6 6 6 6
8 9 9 9 9 9 9 8 7 7 7 8 8 8 7 7 7 7 7 7 7 7 7 7 7 7 8 8 8 8 8 8 7 6 6 6 7 7 7 7 6 6 6 6 6 6 6 6 6
9 9 10 10 11 11 10 9 8 8 8 8 8 8 7 7 8 8 8 8 8 7 7 8 8 8 8 9 8 8 8 7 7 7 7 6 7 7 7 7 7 6 7 7 6 6 6 7 7
11 11 11 12 12 12 11 10 9 8 8 9 9 9 8 8 8 9 9 9 9 9 9 9 9 9 9 9 9 8 7 7 8 7 7 7 7 7 7 8 7 7 7 7 7 7 7 8 8
12 12 12 13 13 12 12 11 10 10 10 10 9 9 9 9 10 9 9 9 10 10 10 10 10 10 10 9 9 8 8 8 8 8 8 7 7 7 7 7 7 7 7 8 8 8 8 8 8
Wind_Direction
10 9 8 4 3 9 11 30 37 20 6 357 348 337 339 343 336 322 328 329 323 319 316 313 311 302 291 276 260 247 248 251 250 250 244 245 243 246 238 234 226 228 234 233 231 233 228 226 220
8 6 11 3 2 8 13 24 24 13 1 354 349 330 337 338 332 325 310 313 326 320 312 299 291 292 294 286 274 254 251 249 247 247 245 246 243 243 248 238 228 227 230 231 231 233 230 228 223
8 9 12 2 8 14 17 21 13 7 4 357 350 342 332 325 319 311 294 298 308 312 311 300 283 281 286 292 284 270 256 253 254 251 248 248 250 252 251 250 242 228 230 229 228 232 233 233 230
10 10 2 359 11 20 20 18 16 14 9 358 350 344 332 326 312 306 296 296 299 302 305 297 283 278 281 284 284 275 268 257 253 249 246 249 253 258 256 261 254 243 237 231 232 233 235 241 238
11 6 358 10 11 19 20 14 10 10 5 357 352 343 343 337 332 321 314 311 301 305 302 294 284 282 279 281 283 280 277 265 253 247 244 248 255 260 260 262 259 254 250 245 242 239 237 244 241
5 2 2 12 9 16 20 15 9 8 8 4 359 354 351 341 342 337 321 323 307 301 293 289 285 286 283 279 284 281 279 273 255 241 240 247 254 259 260 260 256 253 252 247 248 253 244 243 244
2 3 2 5 11 15 17 16 18 14 12 7 5 5 0 354 353 350 338 329 320 306 299 295 286 287 286 281 284 281 277 274 260 245 244 245 252 256 255 253 255 254 252 251 250 253 250 247 249
359 1 358 3 11 13 16 15 13 11 11 9 5 5 2 0 356 354 340 338 339 319 303 295 285 285 291 288 283 283 276 272 260 246 245 245 252 259 259 255 257 258 255 253 255 253 250 249 249
359 3 359 5 11 13 15 12 7 7 7 6 3 1 358 359 358 353 349 340 345 339 329 309 280 285 286 285 286 283 272 265 262 252 245 244 250 258 262 261 256 257 257 256 257 255 250 250 253
6 6 4 9 11 12 14 12 9 5 4 360 1 360 0 2 357 359 0 1 5 357 353 337 303 293 283 281 285 281 272 262 259 256 252 250 255 262 265 265 260 259 261 259 260 260 255 254 258
13 11 9 13 11 9 11 13 13 8 4 4 3 5 7 4 0 8 4 2 1 357 355 355 336 311 294 289 293 286 280 268 256 254 259 260 263 265 265 262 264 263 262 261 263 264 259 259 262
15 16 13 14 12 9 11 10 11 12 9 7 5 6 5 5 4 8 6 0 355 345 344 354 334 316 306 295 294 292 289 278 267 261 261 266 264 267 265 262 265 266 262 261 265 267 261 261 263
13 11 13 12 12 9 10 12 14 13 11 8 9 7 359 360 4 10 11 9 8 347 339 354 350 340 326 311 305 302 294 285 278 265 264 266 267 271 272 270 266 268 267 264 265 262 264 262 263
4 3 6 6 8 8 12 12 14 13 10 8 5 9 9 14 14 10 7 7 12 8 8 8 358 8 354 329 324 308 294 288 286 274 268 261 261 269 275 273 265 268 271 273 277 272 267 263 262
351 355 4 7 8 8 11 10 8 8 7 8 7 4 6 13 12 3 5 7 11 14 15 9 360 2 352 337 325 313 300 293 285 272 268 264 265 265 269 268 267 266 270 272 277 275 270 263 262
350 358 1 5 8 11 11 7 5 4 5 6 8 6 6 9 9 6 8 5 6 8 6 0 353 352 340 328 320 319 312 312 292 270 269 273 274 268 266 269 268 271 272 275 277 282 280 271 268
346 351 352 356 6 10 6 3 5 5 4 6 7 7 11 11 10 9 9 5 3 357 352 348 346 342 334 323 314 320 318 327 318 294 288 286 283 278 274 279 270 273 279 283 281 286 288 292 290
335 350 349 346 359 2 1 3 8 8 7 6 7 9 14 13 12 8 7 6 0 350 344 341 342 342 338 332 323 317 307 300 301 298 293 293 291 284 281 278 274 273 277 282 293 295 291 300 305
333 346 344 347 352 357 1 6 10 9 3 3 5 4 7 9 13 8 8 3 354 346 340 339 341 343 338 331 326 311 298 294 300 296 288 286 289 288 276 274 276 274 274 278 292 307 302 296 306
332 339 341 343 344 344 354 360 1 3 1 1 360 357 355 356 2 1 356 349 341 337 332 328 331 330 328 322 318 313 305 297 298 292 286 283 284 281 275 279 284 282 282 282 289 305 302 296 299
317 321 330 331 336 335 339 353 352 356 358 358 359 356 354 352 353 349 343 338 332 328 324 319 319 319 319 319 319 314 306 300 298 288 280 281 282 274 269 274 281 288 288 289 293 301 300 289 293
292 302 314 319 322 321 330 348 345 351 351 352 354 353 353 349 346 341 337 332 329 328 320 316 317 313 308 311 314 310 304 302 299 291 281 280 285 276 267 266 279 284 294 295 296 299 302 291 288
290 289 297 303 306 310 315 327 338 342 342 343 345 347 348 347 341 335 332 326 320 321 322 320 321 314 303 303 308 307 310 308 300 291 280 272 275 274 266 267 269 278 291 299 302 301 301 301 289
283 282 290 298 300 301 305 312 329 335 336 334 333 336 338 339 338 334 330 325 320 319 319 321 321 314 306 303 300 296 302 306 298 288 280 273 268 269 268 269 268 277 284 286 293 294 298 303 300
273 276 286 293 296 299 305 310 327 326 325 326 327 327 327 327 331 328 324 323 322 320 320 322 320 314 309 306 301 295 296 301 298 290 282 275 269 268 267 265 269 274 279 284 289 287 290 296 300
269 273 279 287 294 299 300 307 321 318 318 319 324 326 323 322 325 324 323 320 318 315 315 318 320 316 312 308 305 298 295 297 295 290 282 274 266 269 273 265 263 269 276 277 279 281 287 293 294
269 272 275 280 288 291 293 301 307 313 315 315 321 323 319 321 320 320 320 318 317 315 315 317 317 314 311 305 301 296 293 294 292 288 279 272 267 270 273 265 261 264 270 271 273 277 285 290 290
266 270 274 277 283 286 291 298 304 310 313 315 315 315 315 318 320 320 319 320 319 314 311 311 310 308 305 304 301 293 290 287 284 282 276 270 270 267 267 268 262 258 264 268 277 280 284 287 289
262 265 268 274 279 284 287 293 297 301 300 304 303 303 306 313 318 316 314 315 316 312 306 304 304 305 305 305 300 292 287 282 274 271 268 269 267 270 267 266 265 265 272 274 277 282 285 287 287
260 262 266 270 276 281 285 289 291 291 291 295 297 296 298 303 309 309 307 309 307 305 301 300 301 300 302 303 297 289 286 283 275 266 265 271 268 266 266 265 268 271 274 276 278 280 286 287 283
Height
5893 5892 5892 5892 5891 5890 5889 5888 5887 5886 5885 5884 5883 5883 5883 5883 5884 5885 5882 5881 5880 5880 5879 5879 5878 5878 5878 5877 5877 5877 5878 5878 5878 5878 5878 5878 5878 5878 5878 5878 5878 5878 5878 5879 5879 5879 5879 5879 5880
5892 5892 5892 5892 5890 5889 5889 5887 5886 5886 5885 5884 5882 5882 5882 5882 5882 5881 5880 5880 5880 5879 5879 5878 5878 5878 5877 5877 5877 5876 5877 5877 5877 5877 5877 5877 5877 5877 5877 5877 5877 5878 5877 5878 5878 5878 5878 5878 5878
5892 5892 5892 5891 5890 5889 5888 5887 5886 5885 5884 5883 5882 5882 5881 5881 5881 5880 5879 5879 5879 5878 5878 5877 5877 5877 5877 5876 5876 5876 5876 5876 5876 5876 5876 5877 5877 5877 5877 5876 5876 5877 5877 5877 5877 5877 5877 5877 5877
5893 5893 5893 5891 5890 5889 5887 5887 5886 5885 5884 5883 5882 5881 5880 5880 5880 5879 5878 5878 5877 5877 5877 5876 5876 5876 5876 5876 5875 5875 5875 5875 5875 5875 5875 5876 5876 5876 5876 5876 5876 5876 5875 5876 5876 5876 5876 5876 5876
5893 5893 5892 5890 5889 5888 5887 5886 5885 5884 5883 5882 5881 5880 5880 5879 5879 5878 5877 5877 5876 5876 5876 5876 5875 5875 5875 5875 5874 5874 5874 5874 5874 5874 5874 5875 5875 5875 5875 5875 5875 5875 5874 5875 5875 5875 5875 5875 5875
5893 5892 5892 5890 5889 5888 5887 5886 5885 5884 5883 5882 5881 5880 5879 5878 5877 5877 5876 5876 5875 5875 5875 5875 5874 5874 5874 5874 5873 5873 5873 5873 5873 5873 5873 5874 5874 5873 5874 5874 5874 5873 5873 5873 5873 5873 5873 5873 5873
5894 5892 5891 5890 5889 5888 5887 5886 5885 5884 5883 5882 5880 5879 5878 5878 5877 5876 5875 5874 5874 5874 5874 5874 5873 5873 5873 5873 5872 5872 5872 5872 5872 5872 5872 5873 5873 5872 5872 5872 5872 5872 5872 5872 5872 5872 5872 5872 5872
5893 5893 5891 5890 5888 5888 5887 5885 5884 5883 5882 5881 5880 5879 5878 5877 5876 5875 5874 5874 5873 5873 5873 5872 5872 5872 5872 5872 5871 5871 5871 5871 5871 5871 5871 5871 5871 5871 5871 5871 5871 5871 5870 5870 5870 5870 5870 5870 5870
5893 5893 5891 5890 5888 5887 5886 5885 5884 5882 5881 5880 5879 5878 5877 5876 5875 5875 5874 5874 5873 5872 5872 5871 5871 5871 5871 5871 5870 5870 5870 5870 5870 5870 5870 5870 5870 5870 5870 5869 5869 5869 5869 5869 5869 5869 5868 5868 5868
5893 5892 5891 5890 5888 5887 5886 5884 5883 5882 5881 5880 5879 5878 5876 5875 5875 5874 5873 5873 5872 5872 5871 5871 5871 5870 5870 5870 5869 5869 5869 5869 5869 5869 5869 5869 5869 5869 5868 5868 5868 5867 5867 5867 5867 5867 5867 5867 5866
5892 5891 5890 5889 5888 5887 5885 5884 5883 5882 5881 5880 5878 5877 5876 5876 5875 5874 5873 5872 5872 5872 5871 5870 5870 5869 5869 5869 5868 5868 5868 5868 5867 5867 5867 5867 5867 5867 5867 5866 5866 5866 5866 5866 5865 5865 5865 5865 5865
5892 5891 5890 5888 5887 5886 5885 5884 5883 5882 5881 5880 5878 5877 5876 5875 5874 5874 5873 5872 5871 5871 5870 5870 5869 5869 5868 5868 5867 5867 5867 5866 5866 5866 5866 5866 5866 5865 5865 5865 5865 5864 5864 5864 5864 5864 5863 5863 5863
5892 5890 5889 5888 5887 5886 5885 5884 5882 5881 5880 5879 5878 5877 5876 5875 5874 5873 5872 5871 5871 5870 5870 5869 5869 5868 5867 5867 5866 5866 5866 5866 5865 5865 5865 5864 5864 5864 5864 5863 5863 5863 5863 5862 5862 5862 5862 5862 5861
5891 5890 5889 5888 5887 5886 5885 5883 5882 5881 5880 5879 5877 5876 5875 5874 5873 5872 5872 5871 5870 5870 5869 5868 5868 5867 5867 5866 5866 5865 5865 5864 5864 5864 5863 5863 5863 5863 5862 5862 5862 5861 5861 5861 5860 5860 5860 5860 5859
5891 5890 5889 5888 5886 5885 5885 5883 5882 5881 5879 5878 5877 5876 5875 5874 5873 5872 5871 5870 5870 5869 5869 5868 5867 5867 5866 5866 5865 5864 5864 5863 5863 5863 5862 5862 5862 5861 5861 5861 5860 5860 5860 5859 5859 5858 5858 5858 5857
5891 5890 5889 5888 5886 5885 5886 5883 5882 5880 5879 5878 5876 5875 5874 5873 5872 5871 5870 5870 5869 5869 5868 5867 5867 5866 5865 5865 5864 5863 5863 5862 5862 5862 5861 5861 5861 5860 5860 5860 5859 5859 5858 5858 5857 5857 5856 5856 5855
5890 5889 5888 5887 5886 5885 5884 5882 5881 5880 5878 5877 5876 5875 5874 5873 5872 5871 5870 5869 5869 5868 5867 5867 5866 5865 5864 5864 5863 5862 5862 5862 5861 5861 5860 5860 5860 5859 5859 5859 5858 5858 5857 5857 5856 5856 5855 5854 5854
5889 5888 5887 5886 5885 5884 5883 5882 5881 5879 5878 5877 5875 5874 5873 5872 5871 5870 5869 5869 5868 5867 5867 5866 5865 5864 5863 5863 5862 5861 5861 5861 5860 5860 5859 5859 5858 5858 5858 5857 5857 5857 5857 5856 5856 5855 5854 5853 5853
5888 5887 5886 5885 5884 5883 5882 5881 5880 5879 5878 5876 5875 5874 5873 5872 5871 5870 5869 5868 5867 5867 5866 5865 5864 5863 5863 5862 5861 5860 5860 5860 5859 5859 5858 5858 5857 5857 5856 5856 5856 5856 5856 5855 5855 5854 5853 5852 5852
5887 5886 5885 5884 5883 5882 5881 5880 5879 5878 5877 5876 5875 5873 5872 5871 5870 5869 5868 5867 5866 5866 5865 5864 5863 5862 5861 5861 5860 5860 5859 5858 5858 5857 5857 5856 5856 5855 5855 5855 5855 5855 5854 5854 5854 5853 5852 5852 5851
5886 5886 5884 5883 5882 5881 5880 5880 5879 5877 5876 5875 5874 5872 5871 5870 5869 5868 5867 5866 5865 5865 5864 5863 5862 5861 5860 5859 5859 5858 5858 5857 5856 5856 5855 5855 5855 5854 5854 5854 5854 5853 5853 5853 5852 5852 5851 5850 5850
5885 5884 5883 5882 5881 5880 5880 5879 5878 5877 5875 5874 5873 5871 5870 5869 5868 5867 5866 5865 5864 5863 5862 5861 5860 5860 5859 5858 5857 5857 5856 5855 5855 5854 5854 5854 5853 5853 5853 5853 5852 5852 5852 5852 5851 5851 5850 5849 5849
5884 5883 5882 5881 5880 5879 5878 5877 5878 5875 5874 5873 5872 5870 5869 5868 5867 5866 5865 5864 5863 5862 5861 5860 5859 5858 5857 5856 5856 5855 5854 5854 5853 5853 5852 5852 5852 5852 5852 5851 5851 5851 5851 5850 5850 5849 5849 5848 5848
5882 5882 5881 5879 5879 5878 5877 5876 5876 5874 5872 5872 5870 5869 5868 5867 5865 5864 5863 5862 5861 5860 5859 5858 5857 5856 5855 5855 5854 5853 5853 5852 5851 5851 5851 5850 5851 5851 5850 5850 5850 5850 5850 5849 5849 5848 5848 5847 5846
5880 5880 5879 5878 5877 5876 5875 5874 5874 5872 5870 5869 5868 5867 5866 5865 5864 5863 5862 5861 5860 5858 5857 5856 5855 5854 5853 5853 5852 5852 5851 5850 5850 5849 5849 5848 5849 5849 5849 5848 5848 5848 5848 5848 5847 5847 5847 5846 5845
5878 5878 5878 5877 5875 5874 5873 5872 5872 5870 5868 5867 5865 5865 5864 5863 5862 5861 5860 5859 5858 5857 5856 5854 5853 5852 5852 5851 5850 5849 5849 5848 5848 5847 5847 5847 5847 5847 5847 5846 5846 5846 5846 5846 5846 5845 5845 5845 5844
5875 5875 5875 5874 5873 5872 5871 5870 5870 5868 5866 5865 5863 5862 5862 5861 5860 5860 5859 5857 5856 5855 5854 5853 5852 5851 5850 5849 5848 5847 5846 5846 5845 5845 5845 5845 5845 5845 5845 5844 5844 5844 5844 5844 5844 5844 5843 5843 5842
5872 5872 5872 5871 5870 5869 5869 5868 5868 5866 5865 5863 5862 5861 5861 5860 5859 5858 5857 5855 5854 5853 5852 5851 5850 5849 5848 5847 5846 5845 5844 5844 5843 5843 5843 5843 5843 5843 5843 5843 5842 5842 5842 5842 5842 5842 5841 5841 5840
5869 5869 5868 5868 5867 5867 5866 5868 5865 5864 5863 5861 5860 5859 5859 5858 5857 5856 5855 5854 5853 5851 5850 5849 5848 5847 5845 5844 5843 5842 5842 5841 5841 5841 5840 5840 5840 5840 5840 5840 5840 5840 5840 5840 5840 5840 5839 5838 5838
5866 5865 5865 5865 5865 5864 5863 5866 5862 5861 5860 5859 5858 5857 5856 5856 5855 5854 5853 5852 5850 5849 5848 5846 5845 5844 5843 5842 5841 5840 5840 5839 5839 5838 5838 5838 5838 5838 5838 5838 5838 5838 5838 5837 5837 5837 5837 5836 5835